• In Hungary
  • List of Countries
  • For 7 days
  • Water Temperature
  • Satellite Maps
  • Weather Map
  • News
  • Weather Widgets
  • user-avatar
    Login

    Hourly Weather Savvatevo

    Today, 15 October, Monday

    Time Temperature Precipitation Wind Pressure Humidity
    00:00 +10°C° 0 mm 2 mps 758 mmHg 92%
    01:00 +10°C° 0 mm 2 mps 758 mmHg 93%
    02:00 +10°C° 0 mm 1 mps 758 mmHg 93%
    03:00 +9°C° 0 mm 1 mps 758 mmHg 94%
    04:00 +8°C° 0 mm 2 mps 758 mmHg 94%
    05:00 +8°C° 0 mm 2 mps 758 mmHg 94%
    06:00 +9°C° 0 mm 2 mps 758 mmHg 91%
    07:00 +9°C° 0 mm 2 mps 758 mmHg 88%
    08:00 +10°C° 0 mm 2 mps 758 mmHg 84%
    09:00 +13°C° 0 mm 2 mps 758 mmHg 79%
    10:00 +14°C° 0 mm 2 mps 758 mmHg 73%
    11:00 +15°C° 0 mm 2 mps 758 mmHg 68%
    12:00 +16°C° 0 mm 2 mps 758 mmHg 67%
    13:00 +17°C° 0 mm 2 mps 758 mmHg 65%
    14:00 +17°C° 0 mm 2 mps 758 mmHg 64%
    15:00 +16°C° 0 mm 2 mps 758 mmHg 70%
    16:00 +14°C° 0 mm 2 mps 757 mmHg 77%
    17:00 +13°C° 0 mm 2 mps 757 mmHg 84%
    18:00 +12°C° 0 mm 2 mps 757 mmHg 85%
    19:00 +10°C° 0 mm 2 mps 757 mmHg 86%
    20:00 +10°C° 0 mm 2 mps 757 mmHg 88%
    21:00 +9°C° 0 mm 2 mps 757 mmHg 87%
    22:00 +9°C° 0 mm 2 mps 757 mmHg 86%
    23:00 +8°C° 0 mm 2 mps 757 mmHg 86%

    Tomorrow, 16 October, Tuesday

    Time Temperature Precipitation Wind Pressure Humidity
    00:00 +8°C° 0 mm 2 mps 757 mmHg 85%
    01:00 +8°C° 0 mm 2 mps 757 mmHg 85%
    02:00 +7°C° 0 mm 2 mps 757 mmHg 84%
    03:00 +7°C° 0 mm 2 mps 757 mmHg 84%
    04:00 +7°C° 0 mm 2 mps 757 mmHg 84%
    05:00 +6°C° 0 mm 2 mps 756 mmHg 84%
    06:00 +7°C° 0 mm 2 mps 756 mmHg 81%
    07:00 +8°C° 0 mm 3 mps 756 mmHg 77%
    08:00 +8°C° 0 mm 3 mps 756 mmHg 74%
    09:00 +10°C° 0 mm 3 mps 756 mmHg 69%
    10:00 +11°C° 0 mm 3 mps 756 mmHg 64%
    11:00 +13°C° 0 mm 3 mps 756 mmHg 59%
    12:00 +13°C° 0 mm 3 mps 756 mmHg 58%
    13:00 +14°C° 0 mm 3 mps 756 mmHg 56%
    14:00 +16°C° 0 mm 3 mps 755 mmHg 55%
    15:00 +13°C° 0 mm 3 mps 755 mmHg 61%
    16:00 +12°C° 0 mm 3 mps 755 mmHg 66%
    17:00 +11°C° 0 mm 3 mps 755 mmHg 71%
    18:00 +10°C° 0 mm 3 mps 755 mmHg 73%
    19:00 +10°C° 0 mm 3 mps 755 mmHg 74%
    20:00 +10°C° 0 mm 3 mps 755 mmHg 76%
    21:00 +9°C° 0 mm 3 mps 755 mmHg 79%
    22:00 +8°C° 0 mm 2 mps 755 mmHg 82%
    23:00 +8°C° 0 mm 2 mps 755 mmHg 85%

    Day after tomorrow, 17 October, Wednesday

    Time Temperature Precipitation Wind Pressure Humidity
    00:00 +8°C° 0 mm 2 mps 755 mmHg 87%
    01:00 +7°C° 0 mm 2 mps 756 mmHg 90%
    02:00 +7°C° 0 mm 2 mps 756 mmHg 92%
    03:00 +7°C° 0 mm 2 mps 756 mmHg 92%
    04:00 +7°C° 0 mm 1 mps 756 mmHg 93%
    05:00 +7°C° 0 mm 1 mps 756 mmHg 94%
    06:00 +8°C° 0 mm 1 mps 756 mmHg 92%
    07:00 +8°C° 0 mm 1 mps 756 mmHg 90%
    08:00 +9°C° 0 mm 1 mps 757 mmHg 88%
    09:00 +9°C° 0 mm 0 mps 757 mmHg 83%
    10:00 +11°C° 0 mm 0 mps 757 mmHg 78%
    11:00 +12°C° 0 mm 0 mps 757 mmHg 73%
    12:00 +13°C° 0 mm 0 mps 757 mmHg 71%
    13:00 +13°C° 0 mm 0 mps 757 mmHg 70%
    14:00 +13°C° 0 mm 0 mps 757 mmHg 69%
    15:00 +12°C° 0 mm 0 mps 757 mmHg 75%
    16:00 +11°C° 0 mm 0 mps 757 mmHg 81%
    17:00 +10°C° 0 mm 0 mps 757 mmHg 86%
    18:00 +10°C° 0 mm 1 mps 757 mmHg 87%
    19:00 +10°C° 0 mm 1 mps 757 mmHg 89%
    20:00 +9°C° 0 mm 1 mps 757 mmHg 90%
    21:00 +9°C° 0 mm 1 mps 757 mmHg 90%
    22:00 +9°C° 0 mm 1 mps 757 mmHg 91%
    23:00 +8°C° 0 mm 1 mps 757 mmHg 92%

    18 October, Thursday

    Time Temperature Precipitation Wind Pressure Humidity
    00:00 +8°C° 0 mm 1 mps 757 mmHg 92%
    01:00 +8°C° 0 mm 1 mps 757 mmHg 92%
    02:00 +8°C° 0 mm 1 mps 757 mmHg 92%
    03:00 +8°C° 0 mm 1 mps 756 mmHg 93%
    04:00 +7°C° 0 mm 1 mps 756 mmHg 93%
    05:00 +7°C° 0 mm 1 mps 756 mmHg 93%
    06:00 +8°C° 0 mm 1 mps 756 mmHg 92%
    07:00 +7°C° 0 mm 2 mps 756 mmHg 91%
    08:00 +8°C° 0 mm 2 mps 756 mmHg 89%
    09:00 +9°C° 0 mm 2 mps 756 mmHg 84%
    10:00 +12°C° 0 mm 2 mps 755 mmHg 79%
    11:00 +13°C° 0 mm 2 mps 755 mmHg 74%
    12:00 +14°C° 0 mm 2 mps 755 mmHg 73%
    13:00 +14°C° 0 mm 2 mps 755 mmHg 71%
    14:00 +15°C° 0 mm 2 mps 754 mmHg 70%
    15:00 +14°C° 0 mm 2 mps 754 mmHg 76%
    16:00 +12°C° 0 mm 2 mps 754 mmHg 83%
    17:00 +10°C° 0 mm 2 mps 754 mmHg 89%
    18:00 +9°C° 0 mm 2 mps 754 mmHg 90%
    19:00 +9°C° 0 mm 2 mps 753 mmHg 91%
    20:00 +9°C° 0 mm 2 mps 753 mmHg 92%
    21:00 +8°C° 0 mm 2 mps 753 mmHg 93%
    22:00 +8°C° 0 mm 2 mps 753 mmHg 93%
    23:00 +8°C° 0 mm 2 mps 753 mmHg 94%

    19 October, Friday

    Time Temperature Precipitation Wind Pressure Humidity
    00:00 +8°C° 0 mm 2 mps 753 mmHg 94%
    01:00 +8°C° 0 mm 2 mps 753 mmHg 95%
    02:00 +7°C° 0 mm 2 mps 753 mmHg 95%
    03:00 +7°C° 0 mm 2 mps 753 mmHg 95%
    04:00 +7°C° 0 mm 2 mps 753 mmHg 95%
    05:00 +7°C° 0 mm 2 mps 752 mmHg 95%
    06:00 +7°C° 0 mm 2 mps 752 mmHg 92%
    07:00 +8°C° 0 mm 2 mps 752 mmHg 90%
    08:00 +8°C° 0 mm 2 mps 752 mmHg 87%
    09:00 +10°C° 0 mm 2 mps 752 mmHg 82%
    10:00 +12°C° 0 mm 2 mps 752 mmHg 76%
    11:00 +13°C° 0 mm 2 mps 752 mmHg 71%
    12:00 +14°C° 0 mm 2 mps 752 mmHg 70%
    13:00 +14°C° 0 mm 2 mps 752 mmHg 69%
    14:00 +15°C° 0 mm 2 mps 752 mmHg 68%
    15:00 +13°C° 0 mm 2 mps 751 mmHg 75%
    16:00 +12°C° 0 mm 1 mps 751 mmHg 81%
    17:00 +11°C° 0 mm 1 mps 751 mmHg 88%
    18:00 +10°C° 0 mm 1 mps 751 mmHg 89%
    19:00 +10°C° 0 mm 1 mps 752 mmHg 91%
    20:00 +10°C° 0 mm 1 mps 752 mmHg 92%
    21:00 +10°C° 0 mm 1 mps 752 mmHg 93%
    22:00 +9°C° 0 mm 1 mps 752 mmHg 94%
    23:00 +9°C° 0 mm 1 mps 752 mmHg 94%

    20 October, Saturday

    Time Temperature Precipitation Wind Pressure Humidity
    00:00 +9°C° 0 mm 1 mps 752 mmHg 94%
    01:00 +8°C° 0 mm 0 mps 751 mmHg 94%
    02:00 +8°C° 0 mm 0 mps 751 mmHg 94%
    03:00 +7°C° 0 mm 0 mps 751 mmHg 94%
    04:00 +8°C° 0 mm 1 mps 751 mmHg 94%
    05:00 +8°C° 0 mm 1 mps 751 mmHg 94%
    06:00 +8°C° 0 mm 1 mps 751 mmHg 93%
    07:00 +8°C° 0 mm 1 mps 751 mmHg 91%
    08:00 +8°C° 0 mm 1 mps 751 mmHg 90%
    09:00 +9°C° 0 mm 1 mps 751 mmHg 85%
    10:00 +10°C° 0 mm 1 mps 751 mmHg 79%
    11:00 +11°C° 0 mm 1 mps 751 mmHg 74%
    12:00 +11°C° 0 mm 1 mps 751 mmHg 72%
    13:00 +11°C° 0 mm 1 mps 751 mmHg 69%
    14:00 +11°C° 0 mm 1 mps 751 mmHg 66%
    15:00 +10°C° 0 mm 1 mps 751 mmHg 69%
    16:00 +9°C° 0 mm 1 mps 751 mmHg 72%
    17:00 +8°C° 0 mm 1 mps 751 mmHg 75%
    18:00 +8°C° 0 mm 1 mps 751 mmHg 75%
    19:00 +8°C° 0 mm 1 mps 751 mmHg 75%
    20:00 +7°C° 0 mm 1 mps 751 mmHg 76%
    21:00 +7°C° 0 mm 1 mps 750 mmHg 76%
    22:00 +7°C° 0 mm 1 mps 750 mmHg 77%
    23:00 +7°C° 0 mm 1 mps 750 mmHg 78%
    Show more